This is the latest recevied weather packets stored in our database for station/object SQ7ACP-3. If no packets are shown the sender has not sent any weather packets the latest 10 day(s).
| Time | Temp. | Humidity | Pressure | Rain* | Wind** | Luminosity | Snow |
|---|---|---|---|---|---|---|---|
| 1777547848 | 12.22° C | 27% | 1028.6 hPa | 0 mm | - | - | - |
| 1777547248 | 11.67° C | 25% | 1028.6 hPa | 0 mm | - | - | - |
| 1777546648 | 11.11° C | 26% | 1028.9 hPa | 0 mm | - | - | - |
| 1777546036 | 11.67° C | 28% | 1029.1 hPa | 0 mm | - | - | - |
| 1777545423 | 10.56° C | 27% | 1029.2 hPa | 0 mm | - | - | - |
| 1777544823 | 10° C | 28% | 1029.3 hPa | 0 mm | - | - | - |
| 1777544210 | 10° C | 27% | 1029.4 hPa | 0 mm | - | - | - |
| 1777543598 | 10.56° C | 24% | 1029.5 hPa | 0 mm | - | - | - |
| 1777542998 | 9.44° C | 26% | 1029.4 hPa | 0 mm | - | - | - |
| 1777542398 | 9.44° C | 27% | 1029.5 hPa | 0 mm | - | - | - |
| 1777541785 | 9.44° C | 26% | 1029.5 hPa | 0 mm | - | - | - |
| 1777541173 | 8.89° C | 29% | 1029.6 hPa | 0 mm | - | - | - |
| 1777540573 | 8.89° C | 27% | 1029.6 hPa | 0 mm | - | - | - |
| 1777539961 | 8.89° C | 29% | 1029.6 hPa | 0 mm | - | - | - |
| 1777539348 | 8.89° C | 28% | 1029.6 hPa | 0 mm | - | - | - |
| 1777538747 | 8.33° C | 29% | 1029.6 hPa | 0 mm | - | - | - |
| 1777538138 | 8.33° C | 36% | 1029.8 hPa | 0 mm | - | - | - |
| 1777537524 | 7.78° C | 37% | 1029.8 hPa | 0 mm | - | - | - |
| 1777536922 | 7.22° C | 38% | 1029.8 hPa | 0 mm | - | - | - |
| 1777536322 | 7.78° C | 38% | 1029.9 hPa | 0 mm | - | - | - |
| 1777535710 | 7.22° C | 39% | 1029.8 hPa | 0 mm | - | - | - |
| 1777535110 | 6.67° C | 39% | 1029.9 hPa | 0 mm | - | - | - |
| 1777534497 | 7.22° C | 39% | 1030.1 hPa | 0 mm | - | - | - |
| 1777533890 | 6.67° C | 41% | 1030.1 hPa | 0 mm | - | - | - |
| 1777533282 | 6.11° C | 42% | 1030.1 hPa | 0 mm | - | - | - |
* Rain latest hour (hover to see other rain measurements)
** Current wind speed in m/s (hover to see current wind gust speed)